Time,TemperatureF,DewpointF,PressureIn,WindDirection,WindDirectionDegrees,WindSpeedMPH,WindSpeedGustMPH,Humidity,HourlyPrecipIn,Conditions,Clouds,dailyrainin,SoftwareType,DateUTC
2013-07-13 00:14:00,74.9,59.0,30.00,SE,142,4.0,9.0,58,0.00,,,0.00,weatherlink.com 1.10,2013-07-13 05:14:00,
2013-07-13 00:29:00,74.3,59.0,30.01,SSE,157,3.0,7.0,59,0.00,,,0.00,weatherlink.com 1.10,2013-07-13 05:29:00,
2013-07-13 00:44:00,73.7,59.0,30.02,SE,140,1.0,5.0,60,0.00,,,0.00,weatherlink.com 1.10,2013-07-13 05:44:00,
2013-07-13 00:59:00,73.1,59.0,30.02,SSE,161,0.0,3.0,61,0.00,,,0.00,weatherlink.com 1.10,2013-07-13 05:59:00,
2013-07-13 01:14:00,72.4,59.0,30.02,SE,139,1.0,5.0,62,0.00,,,0.00,weatherlink.com 1.10,2013-07-13 06:14:00,
2013-07-13 01:30:00,71.5,59.0,30.02,SE,129,1.0,4.0,64,0.00,,,0.00,weatherlink.com 1.10,2013-07-13 06:30:00,
2013-07-13 01:45:00,70.4,58.0,30.01,SE,128,1.0,3.0,66,0.00,,,0.00,weatherlink.com 1.10,2013-07-13 06:45:00,
2013-07-13 02:00:00,69.9,58.0,30.01,SSE,151,0.0,5.0,66,0.00,,,0.00,weatherlink.com 1.10,2013-07-13 07:00:00,
2013-07-13 02:15:00,70.1,58.0,30.01,SE,134,1.0,5.0,65,0.00,,,0.00,weatherlink.com 1.10,2013-07-13 07:15:00,
2013-07-13 02:30:00,69.8,57.0,30.01,SE,142,6.0,7.0,65,0.00,,,0.00,weatherlink.com 1.10,2013-07-13 07:30:00,
2013-07-13 02:45:00,69.7,57.0,30.00,SE,128,3.0,5.0,65,0.00,,,0.00,weatherlink.com 1.10,2013-07-13 07:45:00,
2013-07-13 03:00:00,69.3,57.0,30.00,ESE,122,2.0,7.0,66,0.00,,,0.00,weatherlink.com 1.10,2013-07-13 08:00:00,
2013-07-13 03:15:00,69.2,57.0,30.00,SE,137,2.0,8.0,65,0.00,,,0.00,weatherlink.com 1.10,2013-07-13 08:15:00,
2013-07-13 03:30:00,69.4,57.0,30.00,SE,129,4.0,7.0,64,0.00,,,0.00,weatherlink.com 1.10,2013-07-13 08:30:00,
2013-07-13 03:45:00,69.3,57.0,30.00,ESE,123,4.0,9.0,64,0.00,,,0.00,weatherlink.com 1.10,2013-07-13 08:45:00,
2013-07-13 04:00:00,69.4,56.0,30.00,SSE,151,8.0,9.0,63,0.00,,,0.00,weatherlink.com 1.10,2013-07-13 09:00:00,
2013-07-13 04:15:00,69.4,56.0,30.00,South,169,2.0,8.0,63,0.00,,,0.00,weatherlink.com 1.10,2013-07-13 09:15:00,
2013-07-13 04:30:00,69.5,56.0,30.01,East,101,5.0,8.0,63,0.00,,,0.00,weatherlink.com 1.10,2013-07-13 09:30:00,
2013-07-13 04:45:00,69.4,56.0,30.01,ESE,123,7.0,9.0,63,0.00,,,0.00,weatherlink.com 1.10,2013-07-13 09:45:00,
2013-07-13 05:00:00,69.4,56.0,30.01,SE,139,3.0,10.0,62,0.00,,,0.00,weatherlink.com 1.10,2013-07-13 10:00:00,
2013-07-13 05:15:00,69.4,56.0,30.01,South,175,5.0,7.0,62,0.00,,,0.00,weatherlink.com 1.10,2013-07-13 10:15:00,
2013-07-13 05:30:00,69.2,55.0,30.00,SE,130,3.0,8.0,62,0.00,,,0.00,weatherlink.com 1.10,2013-07-13 10:30:00,
2013-07-13 05:45:00,68.6,55.0,30.00,SE,134,2.0,10.0,63,0.00,,,0.00,weatherlink.com 1.10,2013-07-13 10:45:00,
2013-07-13 06:00:00,68.0,56.0,30.00,SSE,157,2.0,8.0,65,0.00,,,0.00,weatherlink.com 1.10,2013-07-13 11:00:00,
2013-07-13 06:15:00,68.1,55.0,30.01,SSE,162,0.0,5.0,64,0.00,,,0.00,weatherlink.com 1.10,2013-07-13 11:15:00,
2013-07-13 06:30:00,68.0,56.0,30.02,SSE,147,4.0,6.0,65,0.00,,,0.00,weatherlink.com 1.10,2013-07-13 11:30:00,
2013-07-13 06:45:00,68.2,56.0,30.01,ESE,113,3.0,8.0,65,0.00,,,0.00,weatherlink.com 1.10,2013-07-13 11:45:00,
2013-07-13 07:00:00,68.1,56.0,30.02,SE,126,3.0,6.0,66,0.00,,,0.00,weatherlink.com 1.10,2013-07-13 12:00:00,
2013-07-13 07:15:00,67.9,56.0,30.02,SE,135,5.0,7.0,66,0.00,,,0.00,weatherlink.com 1.10,2013-07-13 12:15:00,
2013-07-13 07:30:00,68.0,57.0,30.02,SE,143,4.0,7.0,67,0.00,,,0.00,weatherlink.com 1.10,2013-07-13 12:30:00,
2013-07-13 07:45:00,68.3,57.0,30.02,SSE,153,5.0,8.0,67,0.00,,,0.00,weatherlink.com 1.10,2013-07-13 12:45:00,
2013-07-13 08:00:00,68.9,57.0,30.02,SSE,162,2.0,11.0,65,0.00,,,0.00,weatherlink.com 1.10,2013-07-13 13:00:00,
2013-07-13 08:15:00,69.5,57.0,30.02,SSE,153,6.0,10.0,64,0.00,,,0.00,weatherlink.com 1.10,2013-07-13 13:15:00,
2013-07-13 08:30:00,69.9,57.0,30.03,SE,141,3.0,9.0,63,0.00,,,0.00,weatherlink.com 1.10,2013-07-13 13:30:00,
2013-07-13 08:45:00,70.4,58.0,30.03,SE,144,6.0,9.0,64,0.00,,,0.00,weatherlink.com 1.10,2013-07-13 13:45:00,
2013-07-13 09:00:00,71.1,58.0,30.04,SSE,148,8.0,10.0,63,0.00,,,0.00,weatherlink.com 1.10,2013-07-13 14:00:00,
2013-07-13 09:15:00,71.9,59.0,30.03,SE,144,3.0,12.0,63,0.00,,,0.00,weatherlink.com 1.10,2013-07-13 14:15:00,
2013-07-13 09:30:00,72.2,58.0,30.03,SE,130,9.0,10.0,62,0.00,,,0.00,weatherlink.com 1.10,2013-07-13 14:30:00,
2013-07-13 09:45:00,72.6,59.0,30.02,SSE,147,3.0,11.0,62,0.00,,,0.00,weatherlink.com 1.10,2013-07-13 14:45:00,
2013-07-13 10:00:00,73.1,59.0,30.02,SSE,150,4.0,9.0,61,0.00,,,0.00,weatherlink.com 1.10,2013-07-13 15:00:00,
2013-07-13 10:15:00,73.7,59.0,30.02,ESE,123,5.0,13.0,61,0.00,,,0.00,weatherlink.com 1.10,2013-07-13 15:15:00,
2013-07-13 10:30:00,74.1,60.0,30.02,South,173,5.0,10.0,61,0.00,,,0.00,weatherlink.com 1.10,2013-07-13 15:30:00,
2013-07-13 10:45:00,74.7,60.0,30.02,South,181,6.0,8.0,61,0.00,,,0.00,weatherlink.com 1.10,2013-07-13 15:45:00,
2013-07-13 11:00:00,75.5,61.0,30.02,SE,134,4.0,13.0,60,0.00,,,0.00,weatherlink.com 1.10,2013-07-13 16:00:00,
2013-07-13 11:15:00,76.3,61.0,30.03,SE,128,6.0,8.0,59,0.00,,,0.00,weatherlink.com 1.10,2013-07-13 16:15:00,
2013-07-13 11:30:00,76.8,61.0,30.02,South,169,4.0,10.0,59,0.00,,,0.00,weatherlink.com 1.10,2013-07-13 16:30:00,
2013-07-13 11:45:00,77.2,62.0,30.02,SSE,159,5.0,9.0,60,0.00,,,0.00,weatherlink.com 1.10,2013-07-13 16:45:00,
2013-07-13 12:00:00,78.3,63.0,30.04,ESE,105,4.0,8.0,59,0.00,,,0.00,weatherlink.com 1.10,2013-07-13 17:00:00,
2013-07-13 12:15:00,78.9,63.0,30.03,SE,137,4.0,8.0,59,0.00,,,0.00,weatherlink.com 1.10,2013-07-13 17:15:00,
2013-07-13 12:30:00,79.5,63.0,30.02,SE,138,7.0,10.0,58,0.00,,,0.00,weatherlink.com 1.10,2013-07-13 17:30:00,
2013-07-13 12:45:00,79.7,64.0,30.02,ESE,117,8.0,14.0,59,0.00,,,0.00,weatherlink.com 1.10,2013-07-13 17:45:00,
2013-07-13 13:00:00,79.9,64.0,30.03,ESE,122,7.0,13.0,58,0.00,,,0.00,weatherlink.com 1.10,2013-07-13 18:00:00,
2013-07-13 13:15:00,80.2,64.0,30.03,ESE,119,5.0,14.0,59,0.00,,,0.00,weatherlink.com 1.10,2013-07-13 18:15:00,
2013-07-13 13:30:00,79.9,65.0,30.03,ESE,113,10.0,16.0,60,0.00,,,0.00,weatherlink.com 1.10,2013-07-13 18:30:00,
2013-07-13 13:45:00,80.2,65.0,30.02,SE,127,9.0,15.0,61,0.00,,,0.00,weatherlink.com 1.10,2013-07-13 18:45:00,
2013-07-13 14:00:00,79.7,64.0,30.03,SE,129,4.0,14.0,60,0.00,,,0.00,weatherlink.com 1.10,2013-07-13 19:00:00,
2013-07-13 14:15:00,79.6,64.0,30.03,ESE,117,10.0,13.0,60,0.00,,,0.00,weatherlink.com 1.10,2013-07-13 19:15:00,
2013-07-13 14:30:00,80.0,64.0,30.03,SE,138,6.0,11.0,59,0.00,,,0.00,weatherlink.com 1.10,2013-07-13 19:30:00,
2013-07-13 14:45:00,80.6,65.0,30.02,ESE,107,7.0,13.0,60,0.00,,,0.00,weatherlink.com 1.10,2013-07-13 19:45:00,
2013-07-13 15:01:00,80.4,65.0,30.01,ESE,105,5.0,16.0,60,0.00,,,0.00,weatherlink.com 1.10,2013-07-13 20:01:00,
2013-07-13 15:16:00,80.2,65.0,30.01,ESE,111,11.0,14.0,61,0.00,,,0.00,weatherlink.com 1.10,2013-07-13 20:16:00,
2013-07-13 15:31:00,80.0,66.0,30.01,ESE,118,7.0,13.0,62,0.00,,,0.00,weatherlink.com 1.10,2013-07-13 20:31:00,
2013-07-13 15:46:00,79.7,66.0,30.00,East,101,11.0,14.0,63,0.00,,,0.00,weatherlink.com 1.10,2013-07-13 20:46:00,
2013-07-13 16:01:00,79.6,66.0,30.00,East,95,11.0,16.0,63,0.00,,,0.00,weatherlink.com 1.10,2013-07-13 21:01:00,
2013-07-13 16:16:00,79.6,66.0,29.98,East,101,7.0,16.0,63,0.00,,,0.00,weatherlink.com 1.10,2013-07-13 21:16:00,
2013-07-13 16:31:00,80.0,66.0,29.98,SE,132,11.0,16.0,63,0.00,,,0.00,weatherlink.com 1.10,2013-07-13 21:31:00,
2013-07-13 16:46:00,80.3,67.0,29.98,ESE,121,9.0,14.0,63,0.00,,,0.00,weatherlink.com 1.10,2013-07-13 21:46:00,
2013-07-13 17:01:00,80.2,66.0,29.98,SE,135,6.0,13.0,63,0.00,,,0.00,weatherlink.com 1.10,2013-07-13 22:01:00,
2013-07-13 17:16:00,79.8,66.0,29.98,ESE,123,5.0,12.0,63,0.00,,,0.00,weatherlink.com 1.10,2013-07-13 22:16:00,
2013-07-13 17:31:00,79.8,67.0,29.99,East,96,6.0,11.0,64,0.00,,,0.00,weatherlink.com 1.10,2013-07-13 22:31:00,
2013-07-13 17:46:00,79.0,66.0,29.99,SSE,149,5.0,13.0,65,0.01,,,0.01,weatherlink.com 1.10,2013-07-13 22:46:00,
2013-07-13 18:01:00,78.8,66.0,29.99,ESE,111,4.0,12.0,65,0.01,,,0.01,weatherlink.com 1.10,2013-07-13 23:01:00,
2013-07-13 18:16:00,78.8,66.0,29.99,SE,144,3.0,10.0,65,0.01,,,0.01,weatherlink.com 1.10,2013-07-13 23:16:00,
2013-07-13 18:31:00,78.4,66.0,29.99,SSE,148,9.0,14.0,65,0.01,,,0.01,weatherlink.com 1.10,2013-07-13 23:31:00,
2013-07-13 18:46:00,78.3,66.0,29.99,ESE,105,12.0,14.0,67,0.00,,,0.01,weatherlink.com 1.10,2013-07-13 23:46:00,
2013-07-13 19:01:00,77.6,66.0,29.99,ESE,123,10.0,13.0,67,0.00,,,0.01,weatherlink.com 1.10,2013-07-14 00:01:00,
2013-07-13 19:16:00,77.0,66.0,29.99,ESE,123,9.0,14.0,69,0.00,,,0.01,weatherlink.com 1.10,2013-07-14 00:16:00,
2013-07-13 19:31:00,76.5,66.0,30.00,ESE,105,8.0,11.0,70,0.00,,,0.01,weatherlink.com 1.10,2013-07-14 00:31:00,
2013-07-13 19:46:00,75.9,65.0,30.00,SE,124,8.0,11.0,70,0.00,,,0.01,weatherlink.com 1.10,2013-07-14 00:46:00,
2013-07-13 20:01:00,75.5,65.0,30.00,ESE,109,2.0,14.0,70,0.00,,,0.01,weatherlink.com 1.10,2013-07-14 01:01:00,
2013-07-13 20:16:00,74.9,65.0,30.00,ESE,112,5.0,14.0,70,0.00,,,0.01,weatherlink.com 1.10,2013-07-14 01:16:00,
2013-07-13 20:31:00,74.4,65.0,30.01,ESE,115,5.0,10.0,72,0.00,,,0.01,weatherlink.com 1.10,2013-07-14 01:31:00,
2013-07-13 20:46:00,74.0,64.0,30.01,ESE,103,8.0,15.0,71,0.00,,,0.01,weatherlink.com 1.10,2013-07-14 01:46:00,
2013-07-13 21:01:00,73.5,63.0,30.01,ESE,116,7.0,12.0,70,0.00,,,0.01,weatherlink.com 1.10,2013-07-14 02:01:00,
2013-07-13 21:16:00,73.5,62.0,30.02,SE,137,3.0,12.0,68,0.00,,,0.01,weatherlink.com 1.10,2013-07-14 02:16:00,
2013-07-13 21:31:00,73.4,62.0,30.03,SE,133,4.0,11.0,68,0.00,,,0.01,weatherlink.com 1.10,2013-07-14 02:31:00,
2013-07-13 21:46:00,73.1,62.0,30.03,ESE,111,4.0,8.0,68,0.00,,,0.01,weatherlink.com 1.10,2013-07-14 02:46:00,
2013-07-13 22:01:00,72.6,62.0,30.03,ESE,117,7.0,10.0,69,0.00,,,0.01,weatherlink.com 1.10,2013-07-14 03:01:00,
2013-07-13 22:16:00,72.3,62.0,30.04,ESE,123,7.0,9.0,69,0.00,,,0.01,weatherlink.com 1.10,2013-07-14 03:16:00,
2013-07-13 22:31:00,72.4,62.0,30.04,ESE,123,8.0,10.0,69,0.00,,,0.01,weatherlink.com 1.10,2013-07-14 03:31:00,
2013-07-13 22:46:00,72.4,62.0,30.04,SE,146,5.0,7.0,70,0.00,,,0.01,weatherlink.com 1.10,2013-07-14 03:46:00,
2013-07-13 23:01:00,72.2,62.0,30.04,SE,136,3.0,6.0,71,0.00,,,0.01,weatherlink.com 1.10,2013-07-14 04:01:00,
2013-07-13 23:16:00,72.0,63.0,30.04,ESE,111,4.0,6.0,72,0.00,,,0.01,weatherlink.com 1.10,2013-07-14 04:16:00,
2013-07-13 23:31:00,71.9,62.0,30.05,SE,136,2.0,7.0,72,0.00,,,0.01,weatherlink.com 1.10,2013-07-14 04:31:00,
2013-07-13 23:46:00,71.6,63.0,30.05,ESE,112,1.0,4.0,74,0.00,,,0.01,weatherlink.com 1.10,2013-07-14 04:46:00,